Weather History for Fort Myers, FL

Change the Weather History Date:

Wednesday, January 9, 2013

  Actual Average Record
Temperature  
Mean Temperature 79 °F 64 °F  
Max Temperature 88 °F 74 °F 88 °F (2013)
Min Temperature 70 °F 54 °F 32 °F (1958)
Degree Days  
Heating Degree Days 0 4  
Month to date heating degree days 0 36  
Since 1 July heating degree days 58 129  
Cooling Degree Days 14 3  
Month to date cooling degree days 64 27  
Year to date cooling degree days 64 27  
Growing Degree Days 28 (Base 50)    
Moisture  
Dew Point 67 °F    
Average Humidity 77    
Maximum Humidity 100    
Minimum Humidity 42    
Precipitation  
Precipitation 0.00 in 0.07 in 2.01 in (1961)
Month to date precipitation 0.46 0.57  
Year to date precipitation 0.46 0.57  
Sea Level Pressure  
Sea Level Pressure 30.21 in    
Wind  
Wind Speed 9 mph (ESE)    
Max Wind Speed 17 mph    
Max Gust Speed 23 mph    
Visibility 9 miles    
Events      
T = Trace of Precipitation, MM = Missing Value Source: NWS Daily Summary

Daily Weather History Graph

Daily Weather History Graph

Search for Another Location

Airport:

Trip Planner

Search our weather history database for the weather conditions in past years. The results will help you decide how hot, cold, wet, or windy it might be!

Date:

Astronomy

Jan. 09, 2013 Rise Set
Actual Time 7:17 AM EST 5:52 PM EST
Civil Twilight 6:52 AM EST 6:17 PM EST
Nautical Twilight 6:23 AM EST 6:46 PM EST
Astronomical Twilight 5:55 AM EST 7:14 PM EST
Moon 4:54 AM EST (1/9) 3:53 PM EST (1/9)
Length of Visible Light 11h 25m
Length of Day
10h 35m
Waning Crescent, 6% of the Moon is Illuminated
Jan 9
Waning Crescent
Jan 11
New
Jan 18
First Quarter
Jan 26
Full
Feb 3
Last Quarter

Hourly Weather History & Observations

Time (EST) Temp. Heat Index Dew Point Humidity Pressure Visibility Wind Dir Wind Speed Gust Speed Precip Events Conditions
12:53 AM 72.0 °F - 69.1 °F 91% 30.16 in 8.0 mi East 5.8 mph - N/A   Mostly Cloudy
1:53 AM 72.0 °F - 70.0 °F 93% 30.17 in 8.0 mi ENE 4.6 mph - N/A   Overcast
2:53 AM 71.1 °F - 69.1 °F 93% 30.17 in 8.0 mi East 5.8 mph - N/A   Mostly Cloudy
3:53 AM 71.1 °F - 69.1 °F 93% 30.16 in 7.0 mi East 4.6 mph - N/A   Clear
4:53 AM 71.1 °F - 69.1 °F 93% 30.17 in 8.0 mi East 9.2 mph - N/A   Mostly Cloudy
5:53 AM 71.1 °F - 69.1 °F 93% 30.18 in 8.0 mi East 6.9 mph - N/A   Scattered Clouds
6:10 AM 69.8 °F - 69.8 °F 100% 30.17 in 8.0 mi East 4.6 mph - N/A   Mostly Cloudy
6:17 AM 69.8 °F - 69.8 °F 100% 30.18 in 7.0 mi East 5.8 mph - N/A   Scattered Clouds
6:53 AM 70.0 °F - 69.1 °F 97% 30.19 in 6.0 mi East 5.8 mph - N/A   Clear
7:53 AM 70.0 °F - 69.1 °F 97% 30.22 in 6.0 mi East 5.8 mph - N/A   Clear
8:53 AM 73.9 °F - 70.0 °F 87% 30.24 in 10.0 mi ESE 10.4 mph - N/A   Clear
9:53 AM 78.1 °F - 69.1 °F 74% 30.25 in 10.0 mi ESE 16.1 mph 20.7 mph N/A   Clear
10:53 AM 81.0 °F 83.3 °F 66.9 °F 62% 30.25 in 10.0 mi SE 12.7 mph 19.6 mph N/A   Clear
11:53 AM 82.0 °F 84.1 °F 66.0 °F 58% 30.23 in 10.0 mi ESE 12.7 mph - N/A   Mostly Cloudy
12:53 PM 84.9 °F 86.6 °F 64.9 °F 51% 30.21 in 10.0 mi SE 8.1 mph - N/A   Scattered Clouds
1:53 PM 86.0 °F 86.8 °F 63.0 °F 46% 30.18 in 10.0 mi SE 12.7 mph 20.7 mph N/A   Scattered Clouds
2:53 PM 87.1 °F 87.5 °F 62.1 °F 43% 30.17 in 10.0 mi SSE 11.5 mph 18.4 mph N/A   Scattered Clouds
3:53 PM 86.0 °F 85.7 °F 60.1 °F 41% 30.18 in 10.0 mi ESE 12.7 mph - N/A   Scattered Clouds
4:53 PM 82.9 °F 84.0 °F 63.0 °F 51% 30.19 in 10.0 mi East 11.5 mph - N/A   Clear
5:53 PM 80.1 °F 81.7 °F 64.0 °F 58% 30.20 in 10.0 mi East 9.2 mph - N/A   Partly Cloudy
6:53 PM 78.1 °F - 64.9 °F 64% 30.22 in 10.0 mi East 10.4 mph - N/A   Clear
7:53 PM 75.0 °F - 66.0 °F 73% 30.24 in 10.0 mi ESE 10.4 mph - N/A   Clear
8:53 PM 73.9 °F - 66.9 °F 79% 30.24 in 10.0 mi East 10.4 mph - N/A   Clear
9:53 PM 73.0 °F - 68.0 °F 84% 30.25 in 10.0 mi East 10.4 mph 18.4 mph N/A   Clear
10:53 PM 72.0 °F - 68.0 °F 87% 30.26 in 10.0 mi ESE 8.1 mph - N/A   Partly Cloudy
11:53 PM 73.0 °F - 68.0 °F 84% 30.27 in 10.0 mi East 5.8 mph - N/A   Overcast